This demonstration page uses our WeatherBlox Daily Observations layout. Learn more.

Left ArrowRight Arrow

39.51506, -84.39828

Hourly Observations for June 1, 2018

Temp ( °F °C ) Dew Point ( °F °C ) Humidity (%) Winds ( mph kmh ) Pressure ( in mb ) Visibility ( mi km ) Precip ( " mm )
12:15 am 00:15 Clear 69 20.7 65 18.5 87 87 SW 5 7 29.85 1011 10 16 0.00 0.00
12:35 am 00:35 Clear 69 20.4 65 18.4 88 88 SSW 5 7 29.83 1010 10 16 0.00 0.00
12:55 am 00:55 Partly Cloudy 69 20.7 65 18.5 87 87 SSW 7 11 29.83 1010 10 16 0.00 0.00
1:15 am 01:15 Clear 69 20.7 65 18.5 87 87 SSW 7 11 29.83 1010 10 16 0.00 0.00
1:35 am 01:35 Clear 69 20.6 65 18.5 88 88 SW 8 13 29.83 1010 10 16 0.00 0.00
1:55 am 01:55 Partly Cloudy 68 20 66 19 94 94 SSW 6 9 29.83 1010 10 16 0.00 0.00
2:15 am 02:15 Clear 68 20.2 65 18.5 90 90 SSW 5 7 29.83 1010 10 16 0.00 0.00
2:35 am 02:35 Clear with Mist and Fog 68 20.1 65 18.3 89 89 Calm 29.83 1010 7 11 0.00 0.00
2:55 am 02:55 Clear 68 19.9 65 18.2 90 90 SSW 8 13 29.83 1010 10 16 0.00 0.00
3:15 am 03:15 Cloudy 68 20.2 65 18.4 89 89 S 8 13 29.83 1010 10 16 0.00 0.00
3:35 am 03:35 Clear 68 19.9 65 18.3 91 91 S 7 11 29.83 1010 10 16 0.00 0.00
3:55 am 03:55 Clear 68 20.1 65 18.3 89 89 S 6 9 29.83 1010 10 16 0.00 0.00
4:15 am 04:15 Mostly Cloudy 68 19.9 65 18.3 91 91 S 7 11 29.83 1010 10 16 0.00 0.00
4:35 am 04:35 Mostly Cloudy 68 20.1 65 18.4 90 90 SSW 6 9 29.83 1010 10 16 0.00 0.00
4:55 am 04:55 Cloudy 68 20 66 18.7 92 92 SW 6 9 29.83 1010 10 16 0.00 0.00
5:15 am 05:15 Cloudy 68 20.1 66 18.7 92 92 SW 6 9 29.83 1010 10 16 0.00 0.00
5:35 am 05:35 Cloudy 68 20.1 66 18.8 92 92 SW 7 11 29.83 1010 10 16 0.00 0.00
5:55 am 05:55 Cloudy with Rain 68 20.2 66 18.9 92 92 WSW 5 7 29.83 1010 10 16 0.00 0.00
6:15 am 06:15 Cloudy with Light Rain 68 19.9 66 19 95 95 SSW 3 6 29.83 1010 7 11 0.01 0.25
6:35 am 06:35 Cloudy with Light Rain 68 19.9 67 19.2 96 96 SW 3 6 29.85 1011 5 8 0.02 0.51
6:55 am 06:55 Cloudy with Light Rain 68 19.8 67 19.2 96 96 Calm 29.85 1011 3 5 0.06 1.52
7:15 am 07:15 Cloudy with Light Rain 68 20 67 19.3 96 96 Calm 29.85 1011 4 6 0.02 0.51
7:35 am 07:35 Cloudy with Light Rain 69 20.3 67 19.6 96 96 ENE 3 6 29.85 1011 5 8 0.02 0.51
7:55 am 07:55 Partly Cloudy with Light Rain 69 20.6 68 19.9 96 96 SE 5 7 29.83 1010 7 11 0.02 0.51
8:15 am 08:15 Cloudy with Mist and Fog 69 20.8 68 20 95 95 S 3 6 29.85 1011 7 11 0.00 0.00
8:35 am 08:35 Cloudy with Drizzle 70 21 69 20.3 96 96 S 6 9 29.85 1011 7 11 0.00 0.00
8:55 am 08:55 Mostly Cloudy 70 21.2 68 20.2 94 94 SSW 7 11 29.85 1011 10 16 0.00 0.00
9:15 am 09:15 Mostly Cloudy 71 21.4 68 20.1 92 92 SW 7 11 29.85 1011 10 16 0.00 0.00
9:35 am 09:35 Partly Cloudy 71 21.9 69 20.3 91 91 WSW 6 9 29.85 1011 10 16 0.00 0.00
9:55 am 09:55 Mostly Cloudy 72 22.2 69 20.3 89 89 W 6 9 29.85 1011 10 16 0.00 0.00
10:15 am 10:15 Cloudy 73 22.9 69 20.8 88 88 SSW 5 7 29.85 1011 10 16 0.00 0.00
10:35 am 10:35 Mostly Cloudy 74 23.2 69 20.7 86 86 SSW 6 9 29.85 1011 10 16 0.00 0.00
10:55 am 10:55 Cloudy 73 23 69 20.4 85 85 SSW 6 9 29.85 1011 10 16 0.00 0.00
11:15 am 11:15 Cloudy 73 22.9 69 20.3 85 85 SW 6 9 29.88 1012 10 16 0.00 0.00
11:35 am 11:35 Cloudy 73 23 69 20.6 86 86 SW 7 11 29.88 1012 10 16 0.00 0.00
11:55 am 11:55 Cloudy 74 23.1 69 20.7 86 86 SSW 7 11 29.88 1012 10 16 0.00 0.00
12:15 pm 12:15 Cloudy 74 23.4 69 20.5 84 84 WSW 7 11 29.88 1012 10 16 0.00 0.00
12:35 pm 12:35 Mostly Cloudy 76 24.5 70 21.1 81 81 SSW 7 11 29.88 1012 10 16 0.00 0.00
12:55 pm 12:55 Mostly Cloudy 76 24.7 70 21 80 80 SSW 6 9 29.85 1011 10 16 0.00 0.00
1:15 pm 13:15 Mostly Cloudy 78 25.8 71 21.7 78 78 S 7 11 29.85 1011 10 16 0.00 0.00
1:35 pm 13:35 Partly Cloudy 80 26.5 72 22 76 76 SW 8 13 29.85 1011 10 16 0.00 0.00
1:50 pm 13:50 Mostly Cloudy 78 25.8 70 21.3 76 76 SW 8 13 29.85 1011 10 16 0.00 0.00
2:15 pm 14:15 Mostly Cloudy 80 26.5 71 21.4 74 74 SW 8 13 29.85 1011 10 16 0.00 0.00
2:35 pm 14:35 Mostly Cloudy 80 26.7 71 21.4 73 73 SW 9 15 29.83 1010 10 16 0.00 0.00
2:55 pm 14:55 Mostly Cloudy 82 27.7 71 21.4 69 69 SSW 8 13 29.80 1009 10 16 0.00 0.00
3:15 pm 15:15 Partly Cloudy 81 27.3 70 21.2 69 69 SW 10 17 29.80 1009 10 16 0.00 0.00
3:35 pm 15:35 Mostly Cloudy 81 27.4 71 21.5 70 70 SSW 9 15 29.80 1009 10 16 0.00 0.00
3:55 pm 15:55 Partly Cloudy with Nearby Thunderstorms 80 26.6 70 20.9 71 71 SW 8 13 29.80 1009 10 16 0.00 0.00
4:15 pm 16:15 Partly Cloudy with Light Rain 78 25.8 73 22.8 84 84 SW 7 11 29.83 1010 7 11 0.05 1.27
4:35 pm 16:35 Cloudy 71 21.7 64 17.6 78 78 NNE 6 9 29.85 1011 10 16 0.05 1.27
4:55 pm 16:55 Mostly Cloudy 72 22.3 66 19 82 82 Calm 29.83 1010 10 16 0.05 1.27
5:15 pm 17:15 Mostly Cloudy with Light Rain 72 22 66 19 83 83 Calm 29.83 1010 10 16 0.00 0.00
5:35 pm 17:35 Partly Cloudy 73 22.9 67 19.5 81 81 Calm 29.85 1011 10 16 0.00 0.00
5:55 pm 17:55 Partly Cloudy 74 23.1 67 19.7 81 81 SW 3 6 29.83 1010 10 16 0.00 0.00
6:15 pm 18:15 Sunny 74 23.2 67 19.7 81 81 SW 5 7 29.83 1010 10 16 0.00 0.00
6:35 pm 18:35 Sunny 74 23.2 68 19.9 82 82 SW 5 7 29.83 1010 10 16 0.00 0.00
6:55 pm 18:55 Sunny 73 22.9 69 20.6 87 87 SW 7 11 29.83 1010 10 16 0.00 0.00
7:15 pm 19:15 Sunny 73 23 69 20.8 87 87 WSW 5 7 29.83 1010 10 16 0.00 0.00
7:35 pm 19:35 Sunny 73 23 69 20.8 87 87 SW 7 11 29.83 1010 10 16 0.00 0.00
7:55 pm 19:55 Sunny 73 22.5 69 20.3 87 87 SW 7 11 29.85 1011 10 16 0.00 0.00
8:15 pm 20:15 Mostly Cloudy 72 22.4 68 19.8 85 85 W 6 9 29.85 1011 10 16 0.00 0.00
8:35 pm 20:35 Partly Cloudy 72 22.1 67 19.2 84 84 Calm 29.85 1011 10 16 0.00 0.00
8:55 pm 20:55 Mostly Cloudy 71 21.7 67 19.6 88 88 SSW 5 7 29.85 1011 10 16 0.00 0.00
9:15 pm 21:15 Clear 71 21.6 67 19.2 86 86 SW 3 6 29.85 1011 10 16 0.00 0.00
9:35 pm 21:35 Clear 70 21.3 67 19.3 88 88 Calm 29.85 1011 10 16 0.00 0.00
9:55 pm 21:55 Clear 69 20.7 67 19.5 93 93 SW 5 7 29.88 1012 10 16 0.00 0.00
10:15 pm 22:15 Clear 69 20.5 67 19.5 94 94 SW 6 9 29.88 1012 10 16 0.00 0.00
10:35 pm 22:35 Clear 69 20.7 67 19.6 93 93 SW 6 9 29.88 1012 10 16 0.00 0.00
10:55 pm 22:55 Clear 69 20.3 67 19.4 95 95 Calm 29.85 1011 10 16 0.00 0.00
11:15 pm 23:15 Clear 68 20.2 67 19.4 95 95 Calm 29.85 1011 10 16 0.00 0.00
11:35 pm 23:35 Clear 67 19.7 67 19.2 97 97 Calm 29.85 1011 10 16 0.00 0.00
11:55 pm 23:55 Clear 68 19.8 67 19.3 97 97 Calm 29.85 1011 7 11 0.00 0.00

Powered by AerisWeather